Location: Spondin
(51.8528°N, 111.6118°W)
Time: 07:53:49
(UTC+00:00)

Envisat - Visible Passes

Search period start: 24 January 2022 00:00
Search period end: 03 February 2022 00:00
Orbit: 764 x 766 km, 98.2° (Epoch: 23 January)

Date Brightness Start Highest point End Pass type
(mag) Time Alt. Az. Time Alt. Az. Time Alt. Az.
24 Jan 3.5 12:14:23 10° NNE 12:19:25 59° E 12:24:26 10° S visible
24 Jan 3.9 13:53:58 10° N 13:58:06 26° WNW 14:02:14 10° WSW visible
25 Jan 6.5 01:19:06 10° W 01:19:32 10° W 01:19:58 10° WNW visible
25 Jan 4.7 11:37:49 10° NNE 11:42:19 30° E 11:46:47 10° SSE visible
25 Jan 3.2 13:16:40 10° N 13:21:31 46° WNW 13:26:21 10° SW visible
26 Jan 5.8 00:38:19 10° SW 00:42:05 21° W 00:45:53 10° NW visible
26 Jan 5.6 11:01:56 10° NE 11:05:01 16° E 11:08:05 10° SE visible
26 Jan 2.9 12:39:37 10° NNE 12:44:45 87° WNW 12:49:50 10° SSW visible
26 Jan 4.4 14:19:47 10° NNW 14:23:05 18° NW 14:26:22 10° W visible
27 Jan 3.8 12:02:50 10° NNE 12:07:47 48° E 12:12:41 10° S visible
27 Jan 3.7 13:42:13 10° N 13:46:37 30° WNW 13:51:01 10° WSW visible
28 Jan 6.1 01:05:29 10° WSW 01:07:44 13° W 01:10:00 10° WNW visible
28 Jan 5.0 11:26:26 10° NE 11:30:38 25° E 11:34:46 10° SSE visible
28 Jan 3.0 13:05:00 10° N 13:09:59 56° WNW 13:14:56 10° SW visible
29 Jan 5.9 10:51:00 10° ENE 10:53:15 13° E 10:55:30 10° ESE visible
29 Jan 3.1 12:28:01 10° NNE 12:33:09 77° ESE 12:38:13 10° S visible
29 Jan 4.2 14:07:56 10° N 14:11:39 21° WNW 14:15:20 10° WSW visible
30 Jan 4.2 11:51:20 10° NNE 11:56:07 39° E 12:00:52 10° SSE visible
30 Jan 3.5 13:30:29 10° N 13:35:07 36° WNW 13:39:44 10° SW visible
31 Jan 5.9 00:52:54 10° SW 00:55:58 16° W 00:59:04 10° NW visible
31 Jan 5.3 11:15:06 10° NE 11:18:53 21° E 11:22:39 10° SE visible
31 Jan 2.9 12:53:20 10° N 12:58:25 68° WNW 13:03:27 10° SSW visible
01 Feb 6.1 10:41:07 10° ENE 10:41:27 10° E 10:41:48 10° E visible
01 Feb 3.4 12:16:27 10° NNE 12:21:31 63° ESE 12:26:33 10° S visible
01 Feb 4.0 13:56:07 10° N 14:00:10 24° WNW 14:04:13 10° WSW visible
02 Feb 4.6 11:39:52 10° NNE 11:44:26 32° E 11:48:59 10° SSE visible
02 Feb 3.3 13:18:46 10° N 13:23:35 44° WNW 13:28:22 10° SW visible
